GPS BIIR-11 (PRN 19)

Last updated on Tue Dec 03 2024 00:03:09 GMT+0000 (Coordinated Universal Time)

1 28190U 04009A 24337.23239875 -.00000038 00000+0 00000+0 0 9991 2 28190 55.3101 298.3168 0098612 155.3472 16.4014 2.00573109151670
UTC large
Height (km)
Speed (km/s)
/
Latitude / Longitude
Inclination (degrees)
Orbital Period (minutes)
Azimuth
Elevation
Range (km)
Doppler Factor

Next 0 passes for location: London (51.5072 / 0.1276)

Sorry there are no passes over London.